Location: Peterborough
(44.3091°N, 78.3197°W)
Time: 19:08:27
(UTC-04:00)

Tiros 1 - Pass Details

Date: 30 March 2023
Orbit: 627 x 661 km, 48.4° (Epoch: 04 June)

Event Time Altitude Azimuth Distance (km) Brightness Sun altitude
Exits shadow 04:53:42 52° 194° (SSW) 821 7.3 -22.0°
Maximum altitude 04:54:31 61° 150° (SSE) 749 7.4 -21.9°
Drops below altitude 10° 04:59:15 10° 70° (ENE) 2,078 10.9 -21.1°
Sets 05:01:38 0° 67° (ENE) 2,992 12.1 -20.8°
